Location: Unspecified
(42.3650°N, 71.1030°W)
Time: 21:59:04
(UTC+00:00)

S-56A Canister/Altair - Visible Passes

Search period start: 25 June 2024 00:00
Search period end: 05 July 2024 00:00
Orbit: 637 x 2488 km, 38.9° (Epoch: 24 June)

Date Brightness Start Highest point End Pass type
(mag) Time Alt. Az. Time Alt. Az. Time Alt. Az.
25 Jun 9.2 02:09:13 10° WSW 02:17:56 72° S 02:30:57 10° E visible
25 Jun 9.5 04:12:54 10° W 04:23:33 71° SSW 04:38:04 10° ESE visible
25 Jun 9.9 06:17:32 10° W 06:29:18 47° SSW 06:43:13 10° SE visible
25 Jun 10.7 08:25:04 10° W 08:34:02 20° SW 08:43:23 10° S visible
26 Jun 9.1 01:35:51 10° WSW 01:43:56 68° SSE 01:56:13 10° E visible
26 Jun 9.4 03:39:16 10° W 03:49:17 72° S 04:03:26 10° ESE visible
26 Jun 9.8 05:43:37 10° W 05:54:59 50° SSW 06:09:02 10° SE visible
26 Jun 10.6 07:50:19 10° W 07:59:55 23° SW 08:10:12 10° S visible
27 Jun 9.0 01:02:32 10° WSW 01:10:01 64° SSE 01:21:31 10° E visible
27 Jun 9.3 03:05:43 10° W 03:15:05 73° S 03:28:44 10° ESE visible
27 Jun 9.7 05:09:48 10° W 05:20:41 53° SSW 05:34:44 10° SE visible
27 Jun 10.5 07:15:50 10° W 07:25:45 26° SW 07:36:48 10° S visible
28 Jun 9.2 02:32:14 10° W 02:40:58 74° S 02:54:02 10° ESE visible
28 Jun 9.6 04:36:04 10° W 04:46:26 56° SSW 05:00:21 10° SE visible
28 Jun 10.3 06:41:32 10° W 06:51:34 28° SW 07:03:10 10° SSE visible
29 Jun 9.0 01:58:49 10° W 02:06:56 74° S 02:19:19 10° E visible
29 Jun 9.5 04:02:25 10° W 04:12:13 58° SSW 04:25:52 10° SE visible
29 Jun 10.2 06:07:25 10° W 06:17:23 31° SW 06:29:22 10° SSE visible
30 Jun 8.9 01:25:26 10° W 01:32:59 73° S 01:44:37 10° E visible
30 Jun 9.3 03:28:51 10° W 03:38:04 61° SSW 03:48:17 19° SE visible
30 Jun 10.1 05:33:26 10° W 05:43:13 34° SW 05:45:22 32° SSW visible
30 Jun11.107:58:47S07:58:47S07:42:27WSWvisible
01 Jul 8.8 00:52:06 10° WSW 00:59:06 71° S 01:09:58 10° E visible
01 Jul 9.2 02:55:21 10° W 03:03:59 63° SSW 03:13:53 18° ESE visible
01 Jul 10.0 04:59:35 10° W 05:09:04 36° SSW 05:11:04 35° SSW visible
02 Jul 9.1 02:21:53 10° W 02:29:58 64° SSW 02:40:16 15° ESE visible
02 Jul 9.8 04:25:51 10° W 04:34:57 39° SSW 04:37:29 36° S visible
02 Jul 10.9 06:33:33 10° WSW 06:34:43 12° WSW 06:34:43 12° WSW visible
03 Jul 9.0 01:48:30 10° W 01:56:01 66° S 02:07:02 11° ESE visible
03 Jul 9.7 03:52:12 10° W 04:00:52 41° SSW 04:04:16 35° S visible
03 Jul 10.8 05:58:53 10° WSW 06:01:31 14° WSW 06:01:31 14° WSW visible
04 Jul 8.8 01:15:08 10° W 01:22:09 67° S 01:32:55 10° ESE visible
04 Jul 9.5 03:18:37 10° W 03:26:51 43° SSW 03:31:18 32° SSE visible
04 Jul 10.6 05:24:32 10° WSW 05:28:34 17° WSW 05:28:34 17° WSW visible
